Weather History for KSLR - September, 2013

Change the Weather History Date:

Thursday, September 12, 2013

  Actual Average (KGVT) Record (KGVT)
Temperature  
Mean Temperature 84 °F -  
Max Temperature 96 °F 85 °F 100 °F (2011)
Min Temperature 71 °F 67 °F 60 °F (2004)
Cooling Degree Days 18    
Growing Degree Days 34 (Base 50)    
Moisture  
Dew Point 66 °F    
Average Humidity 60    
Maximum Humidity 92    
Minimum Humidity 28    
Precipitation  
Precipitation 0.00 in - - ()
Sea Level Pressure  
Sea Level Pressure 30.04 in    
Wind  
Wind Speed 2 mph (NNE)    
Max Wind Speed 10 mph    
Max Gust Speed -    
Visibility 9 miles    
Events      
Averages and records for this station are not official NWS values.
T = Trace of Precipitation, MM = Missing Value Source: NWS Daily Summary

Daily Weather History Graph

Daily Weather History Graph

Search for Another Location

Airport or City:

Trip Planner

Search our weather history database for the weather conditions in past years. The results will help you decide how hot, cold, wet, or windy it might be!

Date:

Astronomy

Sep. 12, 2013 Rise Set
Actual Time 7:04 AM CDT 7:32 PM CDT
Civil Twilight 6:39 AM CDT 7:57 PM CDT
Nautical Twilight 6:10 AM CDT 8:26 PM CDT
Astronomical Twilight 5:40 AM CDT 8:56 PM CDT
Moon 2:12 PM CDT (9/12) No Moon Set
Length of Visible Light 13h 17m
Length of Day
12h 28m
Waxing Crescent, 50% of the Moon is Illuminated
Sep 12
Waxing Crescent
Sep 12
First Quarter
Sep 19
Full
Sep 26
Last Quarter
Oct 4
New

Hourly Weather History & Observations

Time (CDT) Temp. Heat Index Dew Point Humidity Pressure Visibility Wind Dir Wind Speed Gust Speed Precip Events Conditions
12:15 AM 78.3 °F - 69.8 °F 75% 30.08 in 10.0 mi Calm Calm - N/A   Clear
12:35 AM 76.6 °F - 69.1 °F 77% 30.08 in 10.0 mi Calm Calm - N/A   Clear
12:55 AM 74.8 °F - 69.4 °F 83% 30.07 in 7.0 mi Calm Calm - N/A   Clear
1:15 AM 76.3 °F - 68.9 °F 78% 30.07 in 10.0 mi Calm Calm - N/A   Clear
1:35 AM 75.6 °F - 69.1 °F 80% 30.07 in 10.0 mi East 3.5 mph - N/A   Clear
1:55 AM 74.7 °F - 68.4 °F 81% 30.07 in 10.0 mi Calm Calm - N/A   Clear
2:15 AM 74.3 °F - 68.9 °F 83% 30.07 in 7.0 mi ESE 3.5 mph - N/A   Clear
2:35 AM 75.0 °F - 68.7 °F 81% 30.06 in 10.0 mi Calm Calm - N/A   Clear
2:55 AM 74.3 °F - 68.5 °F 82% 30.07 in 7.0 mi Calm Calm - N/A   Clear
3:15 AM 73.4 °F - 68.9 °F 86% 30.07 in 7.0 mi Calm Calm - N/A   Clear
3:35 AM 74.3 °F - 68.5 °F 82% 30.07 in 7.0 mi Calm Calm - N/A   Clear
3:55 AM 74.1 °F - 68.9 °F 84% 30.06 in 7.0 mi Calm Calm - N/A   Clear
4:15 AM 73.4 °F - 68.9 °F 86% 30.07 in 7.0 mi East 3.5 mph - N/A   Clear
4:35 AM 72.9 °F - 69.4 °F 89% 30.07 in 5.0 mi Calm Calm - N/A   Clear
4:55 AM 72.3 °F - 68.9 °F 89% 30.07 in 5.0 mi East 3.5 mph - N/A   Clear
5:15 AM 72.5 °F - 69.3 °F 90% 30.07 in 5.0 mi Calm Calm - N/A   Clear
5:35 AM 72.1 °F - 69.3 °F 91% 30.08 in 5.0 mi Calm Calm - N/A   Clear
5:55 AM 72.5 °F - 69.4 °F 90% 30.08 in 5.0 mi Calm Calm - N/A   Clear
6:15 AM 72.5 °F - 69.4 °F 90% 30.08 in 5.0 mi Calm Calm - N/A   Clear
6:35 AM 71.6 °F - 68.9 °F 91% 30.09 in 4.0 mi East 3.5 mph - N/A   Clear
6:55 AM 71.6 °F - 69.1 °F 92% 30.09 in 5.0 mi Calm Calm - N/A   Clear
7:15 AM 71.8 °F - 69.1 °F 91% 30.09 in 4.0 mi ESE 4.6 mph - N/A   Clear
7:35 AM 72.5 °F - 68.9 °F 88% 30.09 in 4.0 mi Calm Calm - N/A   Clear
7:55 AM 73.2 °F - 69.8 °F 89% 30.10 in 4.0 mi Calm Calm - N/A   Clear
8:15 AM 74.7 °F - 70.0 °F 85% 30.10 in 5.0 mi Calm Calm - N/A   Haze
8:35 AM 77.5 °F - 69.6 °F 76% 30.10 in 7.0 mi Calm Calm - N/A   Clear
8:55 AM 79.9 °F - 68.4 °F 68% 30.10 in 10.0 mi Calm Calm - N/A   Clear
9:15 AM 81.1 °F 84.2 °F 68.7 °F 66% 30.11 in 10.0 mi SW 4.6 mph - N/A   Clear
9:35 AM 82.8 °F 86.0 °F 68.4 °F 62% 30.11 in 10.0 mi WSW 3.5 mph - N/A   Clear
9:55 AM 84.4 °F 87.6 °F 68.0 °F 58% 30.11 in 10.0 mi SW 5.8 mph - N/A   Clear
10:15 AM 85.5 °F 88.8 °F 68.4 °F 56% 30.11 in 10.0 mi NW 3.5 mph - N/A   Clear
10:35 AM 86.2 °F 89.4 °F 67.8 °F 54% 30.11 in 10.0 mi WNW 3.5 mph - N/A   Clear
10:55 AM 87.8 °F 91.4 °F 68.2 °F 52% 30.10 in 10.0 mi NW 4.6 mph - N/A   Clear
11:15 AM 88.3 °F 91.6 °F 67.8 °F 50% 30.10 in 10.0 mi NNW 4.6 mph - N/A   Clear
11:35 AM 89.1 °F 92.1 °F 66.7 °F 48% 30.09 in 10.0 mi NNW 4.6 mph - N/A   Clear
11:55 AM 90.0 °F 92.8 °F 66.6 °F 46% 30.09 in 10.0 mi North 4.6 mph - N/A   Clear
12:15 PM 91.4 °F 93.6 °F 65.1 °F 42% 30.08 in 10.0 mi North 4.6 mph - N/A   Clear
12:35 PM 91.8 °F 93.8 °F 65.1 °F 41% 30.08 in 10.0 mi NNE 4.6 mph - N/A   Clear
12:55 PM 91.6 °F 93.1 °F 63.9 °F 40% 30.07 in 10.0 mi North 3.5 mph - N/A   Clear
1:15 PM 93.4 °F 94.7 °F 63.5 °F 37% 30.06 in 10.0 mi NNE 3.5 mph - N/A   Clear
1:35 PM 93.2 °F 94.5 °F 63.1 °F 37% 30.06 in 10.0 mi NNW 3.5 mph - N/A   Clear
1:55 PM 93.2 °F 93.7 °F 61.5 °F 35% 30.04 in 10.0 mi Calm Calm - N/A   Clear
2:15 PM 95.2 °F 96.3 °F 62.6 °F 34% 30.03 in 10.0 mi North 5.8 mph - N/A   Clear
2:35 PM 93.2 °F 93.7 °F 62.1 °F 35% 30.02 in 10.0 mi NNW 5.8 mph - N/A   Clear
2:55 PM 93.0 °F 93.4 °F 61.9 °F 35% 30.01 in 10.0 mi WNW 4.6 mph - N/A   Clear
3:15 PM 93.2 °F 93.7 °F 61.9 °F 35% 30.00 in 10.0 mi Calm Calm - N/A   Clear
3:35 PM 95.2 °F 95.9 °F 61.7 °F 33% 29.99 in 10.0 mi NNW 3.5 mph - N/A   Clear
3:55 PM 93.6 °F 94.2 °F 61.9 °F 35% 29.98 in 10.0 mi North 3.5 mph - N/A   Clear
4:15 PM 95.4 °F 95.7 °F 61.2 °F 32% 29.97 in 10.0 mi NNW 3.5 mph - N/A   Clear
4:35 PM 94.8 °F 95.3 °F 61.5 °F 33% 29.97 in 10.0 mi NW 3.5 mph - N/A   Clear
4:55 PM 95.9 °F 96.1 °F 60.6 °F 31% 29.96 in 10.0 mi WNW 6.9 mph - N/A   Clear
5:15 PM 96.4 °F 95.7 °F 58.8 °F 28% 29.96 in 10.0 mi East 3.5 mph - N/A   Clear
5:35 PM 96.1 °F 95.6 °F 59.0 °F 29% 29.95 in 10.0 mi Calm Calm - N/A   Clear
5:55 PM 96.1 °F 96.0 °F 60.1 °F 30% 29.95 in 10.0 mi NE 4.6 mph - N/A   Clear
6:15 PM 95.7 °F 95.1 °F 59.2 °F 29% 29.95 in 10.0 mi East 4.6 mph - N/A   Clear
6:35 PM 90.5 °F 92.2 °F 64.6 °F 42% 29.96 in 10.0 mi North 9.2 mph - N/A   Clear
6:55 PM 89.6 °F 91.5 °F 65.1 °F 44% 29.96 in 10.0 mi NW 10.4 mph - N/A   Clear
7:15 PM 89.4 °F 91.9 °F 66.4 °F 46% 29.96 in 10.0 mi NNW 5.8 mph - N/A   Clear
7:35 PM 88.7 °F 90.4 °F 65.1 °F 45% 29.97 in 10.0 mi NNE 3.5 mph - N/A   Clear
7:55 PM 88.7 °F 90.8 °F 65.5 °F 46% 29.97 in 10.0 mi NE 5.8 mph - N/A   Scattered Clouds
8:15 PM 86.5 °F 88.1 °F 64.9 °F 48% 29.98 in 10.0 mi NE 8.1 mph - N/A   Clear
8:35 PM 85.5 °F 87.4 °F 65.3 °F 51% 29.99 in 10.0 mi East 8.1 mph - N/A   Clear
8:55 PM 85.5 °F 87.1 °F 64.8 °F 50% 29.99 in 10.0 mi ENE 6.9 mph - N/A   Clear
9:15 PM 84.2 °F 86.3 °F 65.8 °F 54% 29.99 in 10.0 mi East 5.8 mph - N/A   Clear
9:35 PM 85.1 °F 87.1 °F 65.5 °F 52% 30.00 in 10.0 mi East 6.9 mph - N/A   Clear
9:55 PM 85.1 °F 87.1 °F 65.8 °F 52% 30.00 in 10.0 mi NE 5.8 mph - N/A   Clear
10:15 PM 84.2 °F 86.6 °F 66.2 °F 55% 30.01 in 10.0 mi NE 5.8 mph - N/A   Clear
10:35 PM 83.3 °F 85.5 °F 66.2 °F 56% 30.00 in 10.0 mi NE 4.6 mph - N/A   Clear
10:55 PM 82.9 °F 85.2 °F 66.2 °F 57% 30.00 in 10.0 mi ENE 5.8 mph - N/A   Clear
11:15 PM 82.4 °F 84.6 °F 66.4 °F 58% 30.00 in 10.0 mi NE 5.8 mph - N/A   Clear
11:35 PM 81.5 °F 83.7 °F 66.4 °F 60% 30.00 in 10.0 mi East 5.8 mph - N/A   Clear
11:55 PM 80.8 °F 82.9 °F 66.4 °F 61% 30.00 in 10.0 mi ENE 4.6 mph - N/A   Clear